Theta_e
320 319 317 317 315 315 313 311 308 308 308 306 307 305 303 302 302 298 294 293 291 291 291 291 290 290 291 291 291 291 290 291 292 294 294 293 293 298 313 317 320 322 325 328 330 325 325 325 324 325 323 323 323 323 323 322 322 322 322 320 320 320 318 319 319 319 319 320 320 320 320 320 321 321 322 322 323 324 324 325 325 325 325 325 325
320 318 317 316 315 314 313 311 311 307 306 309 305 305 304 300 300 298 295 293 292 291 293 291 290 290 290 291 291 291 290 290 291 293 293 293 293 296 308 312 317 321 323 325 327 328 326 325 325 325 323 322 323 323 323 323 323 321 321 320 320 320 318 318 318 318 319 319 319 319 319 319 320 320 321 321 320 321 322 322 323 324 323 323 323
320 318 317 316 315 314 313 312 310 307 307 308 304 306 303 303 302 300 298 294 292 291 292 291 290 290 290 291 291 290 290 290 290 291 293 293 292 293 297 308 314 318 320 322 324 326 328 326 326 324 325 324 323 322 323 322 321 322 321 321 320 320 318 317 317 318 318 318 318 319 319 319 319 319 320 320 320 320 320 321 320 319 319 320 320
321 319 318 317 316 315 313 312 312 309 308 306 304 303 303 300 299 299 298 296 294 291 290 290 291 291 289 290 290 290 290 290 290 291 293 293 292 293 293 297 305 314 317 321 324 325 325 326 327 325 325 325 324 323 322 322 321 321 320 320 320 320 318 317 317 317 317 318 318 318 318 319 318 319 319 319 319 319 319 319 319 319 318 318 318
316 317 316 316 315 314 313 312 313 311 308 305 303 300 300 298 297 295 295 294 293 292 291 289 289 291 289 291 289 290 289 290 289 289 292 293 293 292 292 294 295 304 310 314 319 323 324 325 325 326 325 325 324 324 323 323 321 320 320 320 320 319 319 318 317 316 317 317 318 318 318 318 318 318 318 318 319 318 318 318 318 318 318 317 317
314 312 313 314 313 313 313 312 310 307 305 304 304 302 301 298 297 294 297 294 293 292 291 291 290 289 289 289 288 290 288 289 289 289 290 293 292 291 292 292 293 294 296 306 311 318 322 323 323 323 325 325 325 324 323 322 321 320 320 320 320 320 319 318 317 317 318 318 318 318 318 318 317 316 317 317 317 317 317 317 317 317 317 317 317
313 313 310 311 310 309 309 310 307 305 305 302 304 300 300 300 297 297 292 292 290 291 290 290 289 291 290 290 290 290 288 289 288 288 289 291 291 292 294 293 292 293 295 293 300 307 317 321 321 322 323 324 324 324 324 323 322 320 320 322 321 320 319 319 318 317 317 317 317 317 317 317 316 316 316 316 316 316 316 316 316 316 316 316 316
313 312 312 311 311 310 309 307 305 305 305 301 302 301 299 297 294 296 295 292 290 291 288 289 288 289 289 289 289 289 288 288 289 288 289 289 291 292 294 293 292 292 298 293 294 297 312 317 321 322 322 322 323 323 324 324 323 321 320 321 322 321 320 319 319 317 317 317 317 317 316 316 316 316 316 315 315 315 315 315 315 315 316 316 316
313 313 315 312 310 310 306 306 305 305 304 301 301 301 299 298 292 293 295 296 291 290 288 288 288 287 287 287 288 289 288 288 288 289 289 288 289 291 292 293 293 299 295 292 292 293 302 312 316 318 316 318 320 321 322 323 323 322 321 321 322 321 320 319 318 318 317 318 317 317 316 316 315 315 315 315 314 314 314 314 315 315 315 315 315
311 311 311 311 310 309 307 306 305 305 304 301 301 297 297 298 297 291 292 293 291 290 289 287 287 288 287 287 287 286 287 287 288 291 289 289 288 289 293 293 293 294 294 291 291 293 293 301 310 311 308 311 317 320 321 321 322 322 321 321 321 321 320 319 318 318 318 317 317 316 315 315 315 315 315 315 314 314 314 314 314 314 314 315 315
309 308 309 308 308 307 307 304 305 304 303 301 299 296 295 295 298 294 290 289 290 289 289 288 288 287 287 287 285 285 287 286 289 288 288 288 289 291 288 292 293 293 293 291 291 292 294 293 293 292 292 307 314 318 321 321 321 321 321 321 321 321 320 319 318 317 317 317 317 316 315 315 315 314 314 314 314 313 313 313 314 314 314 314 314
307 307 307 306 306 305 304 301 302 303 302 301 299 298 298 295 294 294 290 289 288 286 286 287 287 286 286 287 285 285 286 286 286 287 288 288 288 288 289 290 291 292 291 292 292 292 293 294 293 293 292 298 308 313 316 319 317 319 321 322 321 321 321 319 318 318 317 317 317 316 315 315 315 315 314 314 314 313 313 313 313 314 314 314 314
306 306 306 305 304 303 303 301 301 301 302 302 301 299 298 297 295 293 292 289 288 286 286 287 287 285 284 285 287 285 287 287 287 287 287 287 286 287 288 289 289 288 291 292 291 291 292 293 294 294 293 291 296 304 309 313 312 315 319 322 321 319 320 320 318 317 317 317 317 316 315 315 315 314 314 314 314 313 313 313 314 314 314 314 314
305 305 304 304 303 302 302 301 300 300 299 298 298 296 295 294 293 292 291 291 289 286 287 288 285 285 285 282 281 284 287 287 287 288 287 287 287 288 288 288 288 288 288 289 290 290 291 292 292 293 293 293 293 294 296 300 303 311 317 320 321 319 318 321 319 318 316 317 318 316 315 315 314 314 314 314 313 313 313 313 313 314 314 314 314
302 303 303 302 301 301 300 300 300 299 299 298 297 296 295 294 293 295 292 289 289 286 287 288 287 282 282 283 281 281 283 283 286 287 287 287 286 287 288 287 289 288 287 287 288 289 289 289 290 291 292 292 292 292 294 296 296 301 309 313 317 320 320 321 320 319 318 318 317 316 315 315 314 314 314 313 313 313 312 313 314 314 314 314 314
297 298 299 298 299 298 297 297 297 298 298 298 297 296 294 293 293 292 293 292 289 289 288 287 285 286 285 284 280 280 282 283 281 283 285 287 287 287 287 288 288 286 285 286 287 287 288 287 287 288 289 290 291 291 292 291 295 299 301 303 307 313 319 323 326 322 319 318 317 316 315 315 314 314 314 314 313 313 313 313 313 313 314 314 314
294 294 294 295 294 295 294 294 294 295 296 296 296 297 296 295 294 293 293 293 293 290 288 289 287 287 286 282 282 283 281 280 281 283 281 284 285 286 286 286 286 285 286 287 286 286 286 286 286 286 286 287 287 288 289 290 292 293 295 298 301 306 309 318 323 325 325 322 319 316 316 315 314 313 313 314 314 313 313 313 313 313 314 314 314
292 292 292 292 293 293 292 293 292 291 293 294 295 295 295 294 294 294 293 292 291 290 289 289 289 288 286 284 286 284 283 281 282 283 280 282 282 282 284 284 283 285 285 286 286 287 287 286 286 286 286 285 286 286 286 287 289 289 291 293 302 306 308 311 317 321 324 325 324 318 317 316 314 313 313 313 313 313 313 313 313 313 313 313 313
290 290 290 291 291 291 291 291 291 290 289 290 291 292 293 293 293 293 293 294 292 290 289 290 289 288 289 288 284 283 283 283 282 282 284 280 281 281 283 283 284 284 285 286 286 286 286 286 286 287 286 286 286 286 285 286 290 291 295 298 305 308 309 310 311 315 319 323 324 322 319 317 315 313 313 314 313 313 313 313 313 313 313 313 313
289 289 289 290 290 290 291 291 291 290 289 289 289 288 289 290 291 292 292 292 292 290 290 290 288 289 288 288 287 285 282 283 283 284 282 282 284 282 281 282 282 284 285 286 286 286 286 286 286 286 286 286 286 286 286 285 285 286 290 297 303 307 308 309 310 311 313 316 320 323 321 319 316 314 313 314 312 313 314 313 313 313 313 312 313
288 288 288 289 289 289 289 290 290 290 290 290 288 287 287 287 288 288 288 290 291 291 290 289 288 288 288 287 287 287 285 283 282 282 283 283 283 284 284 280 281 282 284 285 286 286 286 287 286 286 286 286 286 286 286 286 286 285 290 295 301 306 307 308 308 310 311 312 316 319 321 322 318 316 315 314 313 312 313 312 312 312 313 312 312
286 287 287 287 288 288 288 288 288 289 289 289 289 289 288 287 286 286 286 286 287 288 289 289 289 289 288 288 287 284 284 283 282 281 282 283 282 283 284 283 284 285 284 284 285 286 286 286 285 285 286 286 286 286 286 286 286 287 288 294 298 302 305 305 306 308 311 312 313 314 317 320 321 319 317 315 315 313 312 312 312 312 312 312 312
285 285 286 286 286 287 287 287 287 288 288 288 288 288 288 287 286 285 285 285 286 285 286 286 287 287 286 287 286 287 287 286 285 284 283 282 281 282 283 283 283 285 284 283 285 285 285 285 285 286 286 286 286 286 286 286 288 289 292 294 296 298 301 304 305 307 309 312 313 314 314 315 317 318 318 317 316 315 313 312 312 312 312 312 312
285 284 285 285 285 285 286 286 287 287 287 287 287 287 287 287 287 286 286 285 284 284 284 284 284 285 284 285 285 287 287 286 286 287 286 285 284 284 284 284 284 283 283 283 282 283 284 285 286 286 286 286 286 286 286 287 287 291 290 292 296 298 302 304 305 305 307 309 312 312 313 314 314 315 315 316 316 315 315 314 312 311 311 312 312
284 284 285 285 285 285 285 285 285 286 286 287 287 287 287 287 286 286 285 285 286 284 284 284 284 284 284 285 285 285 284 285 285 285 285 285 284 283 284 284 283 285 283 280 283 280 283 285 285 286 286 286 286 286 286 286 286 289 292 290 294 297 299 301 302 304 305 308 309 311 312 313 313 315 315 314 315 315 314 313 313 312 312 312 312
284 283 284 285 286 286 285 285 284 284 285 286 287 286 286 286 286 286 285 285 284 283 283 283 283 283 283 283 283 284 283 284 284 284 283 283 282 282 283 283 283 283 283 281 280 284 283 283 285 286 285 285 286 286 286 286 286 290 291 289 291 295 297 299 300 302 304 306 308 309 308 308 312 314 314 315 315 315 315 314 313 313 312 312 312
284 285 285 285 285 286 285 285 285 285 285 285 286 286 286 286 286 286 286 285 285 284 284 283 285 284 283 283 284 284 283 283 283 283 284 283 283 283 282 281 282 283 283 283 282 282 286 282 283 284 285 285 285 285 286 286 287 290 290 289 288 291 295 299 301 302 302 304 307 309 309 308 310 313 313 313 313 313 314 314 314 313 312 313 313
285 286 285 285 285 285 285 285 285 285 285 285 285 285 285 285 285 285 285 286 285 285 285 284 284 284 284 283 283 283 284 284 284 283 283 284 283 283 282 281 280 280 283 282 283 284 283 284 282 283 284 285 286 285 287 287 286 290 289 288 287 289 293 297 301 302 302 303 306 309 308 308 309 310 311 311 311 311 310 311 311 311 310 309 309
285 285 284 284 284 284 284 284 284 284 284 284 284 284 284 284 284 284 284 285 285 285 285 285 285 285 284 284 284 284 284 284 284 284 283 283 283 283 283 282 282 280 280 280 282 283 281 282 284 282 284 285 285 286 285 285 287 288 286 287 287 287 291 295 299 301 303 303 304 308 309 308 308 309 309 310 310 311 311 311 310 310 310 309 309
283 283 282 281 282 282 282 282 283 282 282 283 283 283 283 283 283 283 284 284 284 285 285 285 285 285 285 285 285 284 285 284 284 284 283 283 283 282 282 282 282 281 281 280 281 283 284 281 282 283 282 283 284 285 285 285 288 288 286 286 286 287 291 293 296 299 301 303 304 306 309 308 307 307 308 309 310 310 310 309 309 309 309 309 310
280 280 280 280 280 280 279 280 281 282 282 282 282 282 282 282 282 283 283 283 283 283 284 284 285 285 285 285 285 285 285 285 285 284 284 283 283 283 282 282 281 282 281 281 279 283 284 285 283 282 283 282 283 283 284 284 286 288 286 285 285 288 291 291 294 296 299 301 302 304 307 308 307 306 306 307 308 309 309 308 308 308 308 308 308
279 279 279 279 280 280 280 280 280 279 280 280 281 281 281 281 281 282 282 283 282 282 283 283 284 284 284 284 284 284 285 285 285 285 285 284 284 283 283 283 282 282 281 281 280 281 285 285 285 283 282 283 283 282 283 284 285 288 285 285 285 288 287 287 290 294 296 298 300 303 306 307 307 306 306 305 306 307 307 307 306 306 307 306 306
280 280 280 280 279 279 279 279 279 279 279 279 279 279 279 279 280 280 281 281 281 281 282 282 283 283 283 283 283 284 284 284 284 285 285 285 284 283 283 283 283 283 281 280 280 281 284 284 284 285 284 282 283 282 283 283 283 284 286 285 285 285 285 285 286 290 294 296 299 301 304 306 307 306 305 305 304 305 305 306 306 305 305 305 305
280 280 280 280 280 279 279 279 279 279 279 279 279 279 279 278 279 280 280 280 280 280 281 280 281 282 282 282 282 283 283 283 284 284 284 284 284 284 283 283 283 283 283 282 281 281 281 284 284 284 282 281 284 282 283 283 283 283 283 284 285 284 284 285 285 286 291 294 296 299 301 305 307 306 305 304 304 304 304 305 304 303 303 304 303
279 278 278 278 279 279 279 279 279 279 279 278 279 278 278 278 278 278 279 278 279 279 279 280 280 281 281 281 281 282 283 283 283 283 284 284 284 284 284 284 283 283 283 283 282 281 281 282 284 284 284 282 283 284 282 284 284 284 283 283 283 284 285 284 284 285 290 293 295 297 299 302 304 305 305 304 304 303 303 302 303 303 302 302 303
278 279 278 278 278 278 278 278 278 278 278 278 278 278 278 278 278 278 278 278 278 278 278 279 279 279 280 280 281 281 282 282 282 282 283 283 283 283 283 284 284 283 284 283 283 282 282 281 282 282 284 283 283 282 282 283 282 282 282 283 283 283 284 284 284 284 287 292 294 295 297 299 302 303 304 303 303 303 302 301 301 302 301 301 302
277 277 278 277 278 277 278 277 277 277 277 278 278 278 278 278 278 278 278 278 278 278 278 278 280 278 278 279 280 280 281 280 281 281 282 282 282 283 283 283 283 284 284 284 283 283 282 281 282 283 283 283 283 282 281 282 282 282 282 282 282 282 283 283 284 285 288 290 292 293 295 297 299 301 303 303 303 303 302 301 300 301 300 301 300
277 277 277 277 277 276 276 277 277 277 277 277 277 277 277 278 278 278 278 277 277 277 278 278 278 278 278 278 279 279 279 279 280 281 281 281 282 282 282 282 283 283 283 283 283 283 283 282 282 282 282 282 282 282 282 281 282 282 282 282 281 281 281 281 282 284 284 285 285 288 291 294 296 299 301 302 302 302 301 301 300 300 299 299 299
275 275 275 275 275 275 275 275 276 276 276 276 276 277 277 277 277 277 277 277 277 278 278 278 278 278 278 278 279 279 279 279 279 280 280 281 281 281 282 282 282 282 282 282 282 282 282 282 282 282 281 282 282 282 282 281 282 282 282 283 281 281 281 281 282 283 283 284 286 289 289 290 292 294 297 299 301 301 301 300 300 299 298 297 298
274 274 273 273 274 274 274 274 275 275 275 275 275 276 276 276 276 277 277 277 277 277 278 278 278 278 278 279 279 279 279 279 279 279 280 280 281 281 281 282 281 281 281 282 282 281 281 281 281 281 281 281 281 280 281 279 279 280 281 281 281 282 282 282 282 282 282 282 282 283 287 289 290 292 295 298 299 300 299 299 298 298 296 296 297
273 272 273 273 273 273 273 273 273 273 273 274 274 274 274 274 275 275 276 276 276 276 276 277 277 278 278 278 278 279 279 281 283 283 284 284 281 280 281 282 281 281 281 281 281 281 281 281 281 281 281 281 281 281 279 278 279 281 282 281 281 282 283 282 282 283 283 282 282 282 282 283 283 285 287 289 293 296 296 297 297 295 295 296 297
271 271 271 271 271 271 271 271 271 271 271 271 273 275 276 275 274 274 274 274 274 274 275 275 275 276 277 277 278 280 281 282 282 283 283 284 284 283 282 282 281 281 281 280 280 280 280 280 280 280 280 280 281 281 281 281 281 281 281 280 280 282 282 281 282 283 283 282 281 281 281 282 282 283 284 285 288 291 293 294 295 295 295 297 297
269 269 269 269 269 269 268 268 268 268 268 269 273 275 276 277 274 273 273 273 273 273 273 273 274 274 275 276 277 278 279 280 279 281 282 283 283 283 284 285 285 282 281 280 280 280 279 279 280 280 279 279 281 282 282 282 282 280 281 281 281 281 280 280 279 282 283 282 281 281 281 282 282 281 282 284 285 288 290 292 295 295 296 297 297
267 267 267 267 267 266 266 266 266 266 267 269 272 273 274 275 275 273 272 272 272 272 273 273 273 273 274 274 275 277 277 277 278 278 280 281 282 283 283 284 284 285 285 283 281 280 280 279 279 279 280 279 280 281 281 282 282 281 281 281 281 281 281 280 280 280 281 283 281 280 280 283 282 281 281 283 284 286 288 291 294 296 297 297 297
266 265 265 265 265 265 265 264 264 265 265 268 270 272 273 274 275 274 272 272 271 271 272 272 272 272 273 273 273 275 275 277 277 277 277 277 280 281 282 282 283 283 284 285 285 283 282 281 280 280 280 280 280 281 282 283 283 282 280 280 280 281 281 281 281 282 281 282 281 280 280 282 281 280 280 282 283 285 286 290 293 294 296 297 297
264 264 263 263 264 263 264 263 263 263 263 266 270 272 273 273 274 274 271 271 270 270 270 270 270 271 271 271 271 271 273 274 275 276 276 277 277 277 277 277 277 279 281 283 283 283 284 282 281 281 282 283 282 282 283 284 283 282 281 281 281 281 281 281 283 284 283 282 281 281 280 281 281 280 280 281 283 283 284 287 291 293 294 296 296
262 262 262 262 262 262 262 262 262 262 262 268 270 271 272 273 274 273 270 270 269 269 269 269 269 269 270 270 270 270 271 272 273 275 276 276 276 275 275 275 276 277 278 278 279 280 280 281 281 281 282 283 284 284 284 284 283 284 284 283 283 282 282 283 283 283 282 282 282 281 279 283 282 280 280 281 281 281 283 287 290 291 293 294 295
262 262 262 261 261 261 261 261 261 261 262 268 269 270 271 272 273 270 269 268 267 268 268 269 269 270 270 270 270 270 270 270 273 276 276 274 274 274 274 275 277 278 279 281 283 283 282 281 281 281 281 282 285 284 285 285 284 284 284 284 283 282 281 280 280 282 282 281 281 281 280 282 281 280 281 282 281 280 282 282 287 290 292 293 294
261 260 260 260 260 260 260 260 260 260 261 264 268 270 271 272 271 267 267 267 267 267 267 268 269 269 270 270 270 270 271 271 274 277 277 277 274 273 274 274 275 276 276 278 281 282 283 284 285 286 287 287 287 288 288 288 287 286 284 282 281 281 280 279 279 280 281 282 280 281 281 280 281 280 281 280 280 280 281 281 282 288 290 292 293
259 259 260 260 260 260 260 259 260 260 260 264 268 269 270 271 270 267 267 266 266 267 267 268 268 268 269 272 271 270 269 270 273 275 276 275 273 273 273 273 273 274 275 277 278 279 282 284 284 284 285 285 286 287 288 288 288 288 284 281 282 282 280 280 279 280 281 282 281 281 279 279 282 280 279 277 278 279 280 281 281 283 287 290 292
259 259 259 259 259 259 259 259 261 261 260 262 267 268 270 270 269 267 267 266 266 266 266 266 268 268 268 270 271 271 271 272 276 277 277 276 274 274 273 273 273 273 274 277 277 277 278 278 279 279 280 281 282 281 282 285 286 286 285 285 285 283 280 280 280 280 279 281 282 282 278 279 281 279 280 276 277 278 279 280 281 281 282 284 286
Wind_Speed
5 5 4 5 3 3 4 4 3 3 3 3 4 5 4 3 4 4 3 2 1 3 2 2 2 1 1 1 1 1 1 1 1 1 1 1 1 2 4 5 5 6 7 8 9 9 8 10 8 9 6 7 8 7 9 6 5 6 6 5 5 3 2 5 5 4 4 5 5 4 4 4 5 6 6 5 5 5 5 4 3 2 2 2 2
5 4 4 4 4 3 3 3 5 3 3 5 4 5 5 3 2 2 3 2 2 3 1 3 3 2 1 3 2 3 2 2 2 3 2 2 2 2 4 5 5 6 7 9 9 9 10 9 9 10 9 7 9 7 9 9 8 7 6 5 6 4 3 5 6 5 6 5 6 5 5 5 5 5 5 4 4 5 5 4 4 5 3 3 2
6 6 5 4 3 3 4 4 4 5 5 5 3 5 4 5 5 5 4 3 4 2 1 3 4 3 2 2 4 2 3 2 2 2 2 3 3 2 3 5 5 5 6 8 8 8 9 10 12 10 10 9 10 7 10 9 8 10 8 8 5 6 4 6 6 7 7 7 5 6 6 5 5 6 5 6 5 5 5 4 3 2 2 4 5
7 6 7 7 7 7 6 5 5 4 5 5 5 4 4 3 2 1 1 2 2 2 2 2 4 4 3 4 2 3 3 2 2 2 3 3 3 3 3 3 4 5 5 6 6 6 7 9 9 10 11 10 10 9 9 10 9 8 7 7 8 7 4 6 7 7 8 8 7 7 6 6 6 6 5 5 5 4 4 4 5 4 4 4 5
5 6 5 5 5 5 5 6 5 5 4 3 4 3 3 3 2 1 1 0 1 3 2 3 4 5 3 4 2 4 3 2 3 2 3 3 3 3 3 2 2 4 5 5 6 6 6 7 8 7 11 10 9 10 10 11 9 9 9 8 9 8 8 7 7 8 8 8 9 8 7 7 6 5 5 6 6 5 4 5 5 5 5 5 6
5 4 5 5 5 5 6 6 5 3 3 4 4 4 4 3 3 2 2 1 3 3 3 5 5 4 5 4 3 4 3 3 3 3 2 3 3 3 3 3 3 2 3 5 5 5 6 6 7 6 9 10 11 12 11 11 11 9 9 10 9 10 8 8 8 8 9 9 9 9 8 7 7 7 6 7 7 6 5 6 5 6 6 6 6
5 6 5 5 5 5 5 6 4 3 4 3 4 3 3 4 4 4 1 1 2 3 3 4 4 6 5 4 5 5 4 4 3 4 3 3 3 3 4 4 4 3 3 3 4 5 5 6 5 5 6 10 13 12 12 12 11 9 9 11 11 11 11 9 9 8 10 10 10 10 8 8 7 7 7 8 8 6 6 6 7 7 7 7 6
5 5 5 5 6 6 6 4 4 5 4 4 4 5 4 3 2 3 4 4 3 5 2 4 3 4 4 5 5 4 5 4 5 4 4 3 4 4 4 4 4 4 4 3 2 3 5 4 4 4 4 6 5 10 12 13 13 10 10 12 12 11 11 11 10 9 10 10 10 10 10 9 8 8 9 8 8 8 7 7 7 7 7 7 7
5 5 5 5 5 5 3 4 4 5 5 4 5 3 4 4 3 3 4 5 4 5 3 2 3 3 3 4 4 4 4 4 4 5 3 4 4 4 4 4 4 5 4 3 3 2 3 4 4 4 4 5 5 5 10 11 11 11 11 12 12 12 12 12 11 10 11 12 11 11 11 10 9 9 9 9 9 9 8 7 8 8 8 8 8
1 0 2 2 2 3 3 4 4 4 4 4 3 3 3 4 5 4 4 4 4 4 5 4 3 4 4 4 4 3 4 5 5 4 4 4 4 4 6 4 4 5 5 4 3 3 3 3 4 3 4 5 5 5 7 10 12 13 12 12 13 12 11 10 11 10 13 12 11 12 12 11 10 8 9 9 10 10 9 9 9 8 8 8 8
3 2 1 2 1 1 2 2 3 3 4 3 3 3 3 4 5 4 2 2 3 3 4 3 4 4 4 5 3 4 5 5 5 5 5 4 5 5 3 5 5 5 5 4 4 4 4 3 3 3 3 4 5 6 5 5 4 8 11 13 13 13 13 13 13 11 13 13 10 11 12 12 10 9 11 11 11 10 10 9 9 9 9 9 9
5 5 4 4 4 3 3 2 2 3 4 4 4 5 5 4 4 3 3 1 0 1 2 2 1 2 4 4 4 4 6 5 5 5 4 5 6 4 5 5 6 6 4 5 5 4 4 4 4 4 3 4 6 6 6 6 4 4 6 10 12 13 15 14 13 13 15 13 11 12 13 12 10 11 12 12 12 11 11 10 10 10 10 10 10
6 5 5 5 4 4 4 4 2 1 0 1 0 1 0 2 2 2 4 3 3 0 1 2 1 4 3 5 6 5 5 4 5 6 6 6 4 5 6 6 6 5 6 5 5 5 5 5 5 5 5 4 5 6 6 7 5 6 9 11 13 14 16 16 15 14 16 13 14 14 13 12 12 13 14 14 13 12 11 11 12 11 11 11 10
6 5 6 5 5 5 5 3 3 2 2 2 1 0 1 1 2 1 0 4 3 2 3 3 1 3 5 6 5 6 6 6 6 8 7 5 5 6 7 6 7 6 5 4 6 5 6 6 5 5 5 5 5 5 5 5 5 8 10 12 15 16 17 18 16 16 15 15 15 14 13 12 13 14 15 15 14 13 12 12 12 12 12 12 11
8 7 6 6 5 5 5 4 3 2 2 2 2 1 0 1 2 3 2 0 0 1 4 5 4 1 1 2 6 6 5 3 5 6 6 6 6 7 8 6 9 6 5 5 6 6 6 5 5 5 6 6 6 5 6 5 6 7 10 10 11 14 17 18 18 18 17 18 18 15 13 14 14 15 16 16 15 14 13 13 14 13 13 12 12
10 9 8 8 7 6 5 5 4 3 2 2 2 3 2 2 2 3 2 3 2 3 3 3 4 2 5 3 3 1 8 4 3 6 6 8 7 9 6 8 7 4 3 6 7 6 6 5 6 6 6 6 6 6 6 6 7 9 10 10 10 13 15 17 17 19 19 18 18 16 14 15 15 16 17 17 16 15 14 14 14 14 14 14 13
9 9 8 8 7 6 6 5 5 4 3 3 3 1 1 0 0 1 1 3 5 2 1 2 4 3 3 1 4 1 5 5 5 6 2 1 5 7 5 5 5 4 4 7 5 6 6 6 7 5 6 6 6 6 6 6 6 6 8 11 11 12 13 16 18 18 18 18 20 16 15 16 17 18 18 18 17 16 15 15 15 15 15 15 14
10 9 9 7 8 7 6 6 6 6 5 4 2 3 3 3 1 1 2 1 2 4 3 1 5 4 2 2 2 5 4 4 5 9 3 3 3 2 4 5 4 4 5 7 7 7 6 7 5 7 7 6 6 6 7 7 7 7 7 9 13 14 14 16 19 19 20 19 19 17 17 18 18 19 19 18 18 17 16 16 16 16 15 15 15
10 10 9 9 8 8 7 6 6 5 4 5 5 3 3 2 2 0 2 1 0 3 5 4 0 3 5 6 3 1 1 2 7 4 12 4 0 2 5 4 5 5 7 9 8 7 7 7 8 8 7 6 6 7 6 7 8 9 12 13 16 17 17 16 16 18 19 19 19 18 20 19 18 19 20 19 18 18 17 17 17 16 16 16 15
11 10 10 10 10 9 8 7 7 6 5 6 5 4 4 3 2 1 1 1 1 3 5 3 4 3 2 5 5 4 4 3 3 6 7 12 13 3 3 5 4 6 8 9 9 9 9 8 8 7 7 7 7 7 7 7 7 8 9 15 17 19 19 18 17 17 18 19 20 19 19 21 19 18 20 20 20 19 18 18 18 18 17 17 16
11 11 11 10 9 9 9 9 9 8 6 6 5 4 4 5 6 5 4 2 1 2 2 4 3 4 5 3 2 4 4 4 3 3 6 8 15 11 11 3 2 5 7 8 8 8 9 9 7 7 7 8 8 8 8 7 8 8 8 14 18 20 21 21 19 19 19 19 19 20 19 19 21 19 20 21 20 20 19 19 19 19 17 18 17
10 12 12 11 10 10 9 9 8 7 7 6 6 7 5 5 4 4 3 3 3 1 2 4 4 4 3 3 3 3 3 2 3 4 5 7 13 12 9 9 13 6 5 6 9 10 9 8 7 7 8 9 8 8 8 9 9 7 10 15 16 19 20 20 21 20 19 18 17 16 19 19 19 22 21 22 20 20 21 20 19 19 19 19 18
7 8 10 10 10 10 9 8 7 7 8 8 7 6 6 5 4 4 3 3 4 3 2 3 3 4 4 3 5 5 6 6 6 4 5 6 6 10 8 7 8 13 5 6 7 8 7 6 8 9 10 9 8 8 8 10 10 11 13 14 16 17 18 20 20 20 20 19 20 18 18 18 20 23 23 21 22 21 21 21 20 19 19 19 19
7 8 9 9 8 9 9 9 10 9 9 6 7 6 6 5 6 5 4 3 2 2 2 4 4 3 4 4 5 4 4 5 5 6 6 8 7 11 9 9 10 8 6 6 6 7 7 9 9 10 10 9 9 8 9 9 11 17 15 16 17 19 20 22 22 21 21 21 19 19 19 18 19 20 20 23 23 22 22 21 21 21 21 20 19
10 10 10 9 7 9 9 8 8 8 8 9 8 8 7 6 6 5 5 5 5 4 4 4 4 4 6 3 3 4 6 5 5 6 5 6 6 10 9 6 12 12 5 2 6 2 7 8 8 9 9 9 9 8 9 9 10 14 17 12 17 18 20 21 21 21 21 21 21 21 21 21 21 21 23 23 23 23 22 22 22 22 22 22 21
7 8 7 8 8 7 6 7 5 5 6 6 7 7 7 7 6 7 6 5 4 4 3 4 4 4 3 5 4 5 5 5 5 4 6 5 6 7 9 7 8 12 7 3 2 5 3 4 7 8 8 8 9 9 8 10 11 15 18 13 13 18 18 19 20 21 22 22 22 21 22 22 22 23 24 26 25 25 25 23 22 21 21 21 22
6 6 7 8 8 9 9 9 8 8 7 7 7 6 6 6 6 6 6 5 6 5 4 3 5 5 4 4 6 5 5 5 5 5 5 6 6 7 5 11 12 10 11 5 6 8 11 4 6 6 8 8 8 9 10 9 13 17 14 12 11 17 18 21 23 23 23 23 22 21 21 21 22 23 23 23 26 26 27 26 23 23 23 22 22
4 5 6 6 7 8 8 9 9 9 8 8 7 7 7 6 6 6 6 4 6 7 6 4 5 4 4 4 3 6 5 5 5 6 6 6 6 5 6 6 8 14 10 11 9 10 5 7 3 7 7 8 9 9 11 12 10 15 15 10 10 11 17 22 24 24 24 23 22 20 20 20 21 22 21 21 21 22 22 22 22 21 20 21 22
4 4 5 5 5 6 6 7 7 7 8 8 8 8 8 7 7 7 7 5 4 6 5 5 6 5 5 5 5 5 6 5 4 5 6 5 6 6 6 7 7 9 11 11 15 10 4 6 5 4 7 8 8 8 9 9 11 12 9 10 11 11 13 21 23 24 24 24 23 22 20 20 21 22 21 21 21 21 21 21 21 20 21 21 22
4 4 4 5 5 6 6 6 5 5 6 7 7 7 7 7 7 7 7 6 6 5 4 4 6 5 5 5 5 5 6 5 5 5 5 6 6 6 7 7 7 10 9 10 17 7 10 3 5 4 3 7 6 8 7 9 11 13 9 9 10 12 14 19 21 23 23 24 24 24 24 21 21 22 22 22 21 22 23 22 22 22 22 22 23
6 6 6 6 6 6 5 5 6 6 6 6 6 6 6 7 7 7 8 7 8 8 7 5 5 4 5 6 6 6 6 6 6 5 5 5 6 6 6 6 7 8 9 9 13 10 4 11 5 6 6 5 5 6 6 6 8 11 9 9 10 14 17 15 18 19 21 23 22 22 23 24 21 22 23 23 22 23 23 23 22 22 23 23 24
5 5 5 6 7 8 7 7 7 6 7 6 6 6 6 6 6 7 8 8 8 8 9 8 7 6 6 7 7 6 6 5 6 6 6 5 6 6 6 6 7 7 7 9 12 19 6 10 9 7 5 6 6 6 7 7 7 11 8 9 11 14 12 10 16 20 21 22 23 23 22 23 25 23 21 21 22 24 23 24 24 24 23 24 24
6 8 8 8 7 7 7 7 7 8 7 8 7 6 6 7 7 7 7 7 9 9 8 10 8 8 8 8 8 8 6 6 7 6 6 7 6 6 6 6 7 7 7 8 12 16 11 6 9 8 6 6 7 6 9 8 8 8 9 9 10 9 10 10 10 17 20 22 23 24 24 23 25 26 24 23 23 24 24 25 25 24 24 25 25
6 7 8 7 7 8 8 9 9 9 8 8 8 7 8 8 8 6 7 8 9 10 9 10 10 8 9 10 10 9 7 8 8 7 7 7 6 7 7 6 8 8 7 8 11 12 17 6 9 8 6 4 10 4 8 9 10 7 9 10 8 10 10 10 10 10 17 20 23 24 25 25 26 30 30 27 24 24 26 27 25 24 24 25 25
6 5 6 6 7 8 8 8 9 9 9 9 8 8 8 8 9 9 7 8 9 10 10 10 10 9 10 11 11 9 7 9 9 8 6 7 7 8 9 7 8 9 7 9 10 13 15 13 7 11 8 5 9 9 6 9 8 8 10 9 9 9 9 10 9 9 12 20 23 24 26 26 25 25 26 27 26 24 26 31 26 25 24 25 24
7 8 7 8 8 7 8 9 9 9 10 10 11 9 8 8 9 10 9 9 9 9 9 10 10 9 10 11 12 11 9 11 11 10 8 7 7 8 9 8 8 9 8 8 10 11 12 13 9 8 9 8 9 7 6 7 7 8 8 9 6 9 8 7 10 10 11 18 22 24 24 25 26 25 25 25 25 24 24 29 28 25 24 24 23
5 7 7 5 7 7 8 9 10 10 11 11 11 11 10 9 9 10 11 10 10 10 10 10 10 10 11 11 12 11 10 11 11 10 9 10 9 8 9 9 8 8 8 8 10 10 12 14 13 8 8 9 8 7 5 8 8 8 7 9 8 9 9 8 7 8 9 15 19 22 22 24 25 26 26 25 25 25 25 26 29 26 24 23 24
7 6 7 8 7 9 8 8 9 9 9 9 10 10 11 11 10 10 10 10 10 11 12 12 11 10 11 12 12 11 10 11 12 12 10 11 10 10 10 10 9 8 10 10 9 11 12 14 12 12 7 9 9 9 6 7 9 10 9 8 6 6 7 8 9 8 7 8 8 11 16 20 24 27 27 26 26 26 26 27 25 29 25 24 24
7 8 8 9 9 8 10 9 9 9 10 9 9 10 10 10 10 11 12 13 12 11 11 12 12 12 11 11 12 11 11 11 12 12 12 12 11 12 11 11 10 9 10 10 10 11 12 13 13 11 10 8 9 12 7 7 9 10 11 10 9 6 6 9 10 6 6 8 10 13 12 11 14 16 22 25 26 26 26 28 27 29 26 25 24
8 8 9 10 9 8 9 9 9 9 10 10 9 9 9 10 11 11 12 13 14 13 13 12 11 11 11 11 11 11 11 12 11 11 11 12 11 12 11 10 10 10 11 11 11 10 11 12 13 13 9 9 7 7 5 2 6 8 6 7 12 11 9 8 10 10 7 8 10 9 10 11 13 17 20 21 25 26 27 24 27 26 27 24 25
7 7 8 8 9 10 10 9 10 9 8 9 8 10 12 13 12 13 13 13 13 13 13 12 13 12 12 11 12 12 13 16 19 18 16 15 13 13 13 11 11 11 12 11 10 10 11 11 13 11 11 10 10 9 8 7 10 13 6 7 11 12 8 7 8 9 9 9 9 7 8 9 9 9 10 12 15 21 23 26 22 27 26 24 25
7 7 7 7 8 9 11 11 10 9 10 8 12 22 19 13 14 12 11 12 13 14 14 15 15 14 15 12 14 19 24 24 23 24 26 25 24 18 15 13 12 12 12 12 12 11 11 12 13 12 13 13 12 10 10 10 9 8 8 6 11 10 7 9 11 8 7 8 8 10 10 6 8 10 11 13 13 14 13 16 17 18 22 27 25
7 7 8 9 8 9 10 11 12 10 9 9 19 20 21 24 17 12 12 12 12 13 13 15 14 16 14 13 11 16 18 21 20 24 26 26 26 28 29 26 21 15 13 14 14 12 12 12 13 13 13 15 15 11 10 8 8 9 10 10 11 10 10 9 14 7 8 10 10 9 11 8 9 12 12 13 13 11 13 16 21 24 24 25 27
8 8 8 8 9 9 9 10 10 10 10 13 19 21 23 24 21 16 14 14 13 12 12 12 14 13 13 13 12 10 12 15 16 15 20 25 28 28 29 29 29 28 26 18 15 14 13 13 14 15 14 15 15 11 9 7 8 7 9 10 11 11 11 11 11 13 4 12 9 10 14 8 9 12 13 13 13 12 14 15 20 22 25 26 27
8 9 8 9 9 9 9 11 11 11 10 16 20 22 23 24 24 21 14 16 16 15 15 14 14 12 13 13 13 10 11 24 20 15 15 16 21 28 29 30 29 29 27 29 29 21 15 16 16 17 16 14 16 14 9 10 7 10 7 10 10 11 11 12 13 13 4 10 10 11 14 10 10 12 14 14 12 12 13 16 21 22 24 25 27
8 8 8 9 9 9 9 10 11 11 12 16 23 23 24 25 24 22 16 17 16 16 17 16 15 16 14 13 13 16 13 13 14 15 12 14 14 15 16 15 16 18 24 28 31 34 26 18 17 19 17 14 16 14 12 7 10 11 9 11 8 11 11 14 14 14 5 10 12 9 10 9 9 10 14 13 9 10 11 15 22 24 25 27 32
8 9 9 9 9 8 9 9 11 12 11 20 23 24 24 25 25 22 15 15 15 15 15 15 16 16 15 15 15 15 16 15 14 17 15 15 14 15 16 17 17 16 17 17 16 14 14 14 16 18 19 17 16 16 14 11 12 12 11 12 11 11 12 12 11 10 7 8 9 8 14 12 6 9 14 12 6 9 11 14 23 26 28 28 28
6 6 7 6 9 10 9 10 11 13 12 21 24 24 25 24 26 16 14 15 15 15 15 15 15 14 14 14 14 14 13 14 18 26 24 20 18 20 20 17 14 14 14 15 21 21 19 16 16 17 17 18 19 16 14 13 11 11 11 10 9 8 9 10 13 9 11 7 11 11 11 12 5 11 13 8 6 10 11 10 16 26 27 28 29
8 8 7 8 7 9 11 10 11 13 12 18 23 24 24 25 21 13 14 13 13 15 15 15 14 14 14 15 15 16 17 15 19 23 24 23 16 17 16 16 15 14 16 17 23 30 32 32 32 33 34 34 34 33 33 35 23 16 12 12 14 10 12 13 12 11 12 8 9 12 11 14 8 9 10 4 8 10 11 10 10 19 26 27 29
10 8 8 9 7 7 10 11 10 13 13 17 23 24 25 24 21 15 13 13 13 13 14 14 13 13 15 23 21 17 17 17 24 27 27 22 16 15 15 16 18 16 16 13 13 15 25 30 32 35 36 35 34 32 31 32 33 23 15 17 13 11 14 12 15 13 10 10 8 11 10 14 8 4 5 2 3 5 7 7 8 9 17 22 28
9 8 8 9 9 8 8 10 15 16 13 15 22 23 25 24 19 13 12 12 14 13 14 14 13 13 14 16 24 22 20 20 26 24 25 21 15 13 13 15 17 17 14 12 13 14 13 14 16 17 18 22 21 20 20 31 34 25 18 17 13 14 14 13 14 11 12 11 8 14 12 9 11 5 8 1 8 6 6 7 8 10 10 10 13
Wind_Direction
169 175 150 185 172 170 173 189 170 176 157 162 154 158 155 161 168 171 169 191 235 285 295 288 295 306 190 206 230 220 254 251 242 258 281 290 311 315 324 326 313 305 297 292 286 229 227 237 223 241 227 206 221 232 242 214 193 232 227 236 238 233 267 280 258 257 257 244 235 236 232 221 214 212 210 192 193 196 197 177 161 154 137 128 121
165 149 166 182 178 170 178 186 191 176 171 180 181 163 167 160 166 171 178 207 250 264 284 278 282 275 241 212 225 220 210 214 226 237 262 288 291 299 314 322 318 309 303 307 298 305 225 244 233 236 237 225 232 207 250 209 228 238 242 255 248 237 259 267 264 257 253 242 233 230 236 220 211 212 208 194 206 205 204 205 200 191 191 154 198
168 168 178 174 182 186 201 185 198 195 190 193 167 173 164 179 181 185 193 206 236 281 303 285 282 283 254 223 234 231 236 240 242 253 259 262 278 287 306 319 329 316 317 297 300 300 305 242 236 237 237 230 240 217 230 243 235 243 239 235 248 243 242 259 257 256 252 244 242 231 222 217 213 212 197 198 187 198 201 194 184 220 274 237 226
176 177 182 181 184 191 192 188 210 200 195 181 168 162 168 167 153 167 181 184 262 315 335 310 288 271 279 254 259 236 248 240 238 245 252 269 277 289 302 314 320 327 323 323 306 315 306 325 310 238 234 236 233 233 235 244 239 250 245 248 239 242 229 258 263 254 246 245 242 232 226 214 210 211 206 196 193 192 198 209 205 202 196 213 217
170 171 178 185 184 183 185 203 208 197 186 166 152 135 125 129 143 103 99 44 334 304 329 308 291 284 288 270 280 264 262 266 260 267 263 268 279 289 296 303 312 322 333 334 333 319 319 311 314 320 247 236 232 233 230 247 237 241 251 246 248 246 237 246 254 254 254 243 236 231 226 222 217 221 223 214 198 186 208 214 216 216 216 212 210
163 168 168 174 179 189 196 206 205 178 153 149 163 159 156 157 179 142 173 193 248 271 288 279 275 295 295 293 301 274 286 277 268 257 279 276 278 291 286 292 301 310 318 327 331 330 317 312 319 312 296 235 233 233 236 236 240 227 236 250 247 252 245 245 253 250 247 241 235 229 223 221 225 225 225 230 226 207 205 221 223 221 217 214 211
172 169 176 173 179 192 199 208 168 153 162 173 160 160 158 185 156 179 177 224 244 262 245 264 279 280 285 310 292 298 304 278 296 290 278 270 292 276 279 282 288 297 297 305 319 330 325 328 314 314 299 250 233 242 240 235 244 226 227 246 244 242 244 232 242 249 250 239 235 234 232 229 231 238 234 231 231 225 231 226 227 225 220 213 209
178 171 172 183 187 197 207 163 162 156 161 156 148 173 177 166 183 167 187 244 238 262 227 251 283 291 311 310 298 302 293 295 289 286 270 290 273 270 270 273 280 272 264 275 300 311 327 332 331 332 348 353 313 251 245 238 239 232 219 238 248 248 255 250 234 239 245 243 236 236 235 233 233 239 239 237 237 236 232 231 229 225 223 219 213
186 184 180 184 190 204 178 160 157 167 165 162 179 167 166 172 188 204 196 213 214 248 269 254 274 277 290 295 292 305 293 286 278 266 290 268 267 266 275 268 263 263 262 261 275 290 307 315 325 345 352 338 330 281 243 244 236 229 217 232 245 246 242 243 253 235 233 231 235 236 237 239 235 242 243 241 241 241 238 236 234 225 224 223 218
7 342 201 173 175 174 152 162 157 155 157 161 164 133 160 171 204 214 204 197 211 222 242 243 244 268 281 274 281 301 288 289 272 273 267 270 262 255 246 258 264 260 257 255 255 259 272 297 310 332 325 314 302 302 252 238 239 233 227 228 239 247 251 246 246 244 241 235 226 236 240 241 240 241 247 244 241 239 236 231 231 229 227 225 222
55 38 22 28 48 63 89 99 123 135 142 142 146 159 172 191 204 210 201 215 207 214 229 219 250 272 278 280 299 277 271 263 268 272 271 249 248 248 262 261 257 258 260 255 256 251 251 262 272 284 284 296 302 287 292 264 256 245 243 235 235 235 236 237 241 243 246 247 223 233 242 242 242 245 242 240 237 236 235 238 235 232 226 223 222
38 34 44 40 44 42 56 58 88 123 141 163 186 187 199 193 225 191 197 238 13 165 158 147 331 315 296 302 271 254 259 255 272 269 266 255 251 269 257 256 246 254 256 253 251 247 243 245 245 248 258 272 278 285 284 266 310 273 243 235 236 247 247 242 242 241 243 236 212 229 241 243 244 242 242 239 235 234 235 236 236 232 231 224 222
41 45 43 40 37 37 51 51 52 62 34 316 337 216 177 190 158 159 185 211 257 97 90 112 18 313 307 277 285 254 252 254 262 262 250 250 260 259 251 251 250 247 244 248 250 250 246 241 238 240 244 247 264 273 280 279 282 269 256 244 239 245 255 247 241 237 240 240 237 244 242 239 242 244 242 240 236 235 236 236 236 232 230 227 224
36 46 48 47 42 42 47 53 54 44 39 35 64 106 127 125 117 175 136 193 243 159 190 127 335 232 300 325 321 301 253 229 240 245 240 244 240 239 247 245 251 240 247 247 253 248 245 243 241 240 240 241 245 252 262 264 271 268 260 251 244 244 250 253 242 240 237 229 218 240 242 238 242 245 243 240 238 236 235 238 237 232 230 228 226
24 28 41 37 44 46 36 46 67 70 36 17 31 12 54 176 188 219 218 35 246 202 188 193 220 131 130 7 306 349 333 330 270 262 251 238 228 236 238 242 246 240 236 243 247 244 246 246 245 240 241 237 238 240 244 247 247 255 260 263 265 259 251 247 238 239 236 236 240 239 230 237 243 244 244 241 239 237 235 237 235 231 229 228 227
28 32 34 32 30 35 31 37 45 60 73 40 24 7 31 17 1 331 2 275 251 260 203 208 149 134 303 219 240 48 317 298 319 288 234 226 218 234 230 237 246 258 248 245 247 251 251 246 245 241 241 240 237 237 240 240 244 249 254 258 263 260 257 257 260 251 239 235 238 233 228 236 242 243 243 242 239 237 235 237 235 232 230 227 226
29 30 33 33 33 32 34 27 37 32 50 54 49 27 9 159 156 326 302 294 297 319 347 229 235 239 164 308 317 321 231 264 340 286 353 304 255 247 254 252 267 267 259 259 264 253 251 252 250 254 249 244 242 239 240 240 240 241 248 250 250 253 259 261 258 259 258 251 237 225 209 233 241 244 243 240 239 237 235 237 236 233 231 229 228
29 28 29 27 30 25 31 36 32 19 28 38 27 14 9 1 34 195 254 236 251 329 302 259 240 272 280 241 178 252 304 276 351 292 329 224 284 315 258 256 257 261 257 262 257 255 245 250 244 247 242 242 241 241 237 238 235 237 235 242 242 244 246 251 256 258 257 260 262 231 206 229 238 240 241 240 239 238 236 237 236 234 233 232 230
22 26 23 24 26 24 24 32 38 32 19 28 20 23 3 12 25 5 258 289 269 277 277 280 91 242 241 253 266 216 123 345 269 339 299 319 334 277 276 251 236 235 246 247 248 246 245 236 244 241 241 240 242 240 241 240 236 234 233 233 237 240 242 242 246 255 259 261 262 246 208 221 232 237 239 239 239 238 237 237 237 235 233 232 232
21 21 22 22 20 21 19 24 29 22 26 33 20 358 1 7 33 22 351 330 274 240 281 296 269 291 214 248 257 250 219 241 220 240 277 299 291 299 255 270 256 243 241 250 247 240 247 238 241 242 240 238 235 237 240 240 240 241 242 238 237 238 238 239 240 241 251 256 259 267 241 217 230 229 237 238 237 237 235 235 237 236 234 232 233
23 22 22 22 23 20 18 22 22 14 15 26 26 30 25 7 1 5 6 335 228 241 276 278 280 268 300 291 261 262 258 232 218 177 247 275 282 286 287 317 258 255 256 244 251 245 239 243 235 237 238 240 229 232 234 237 239 238 242 241 240 240 240 239 236 237 241 246 252 255 262 247 225 221 231 236 235 236 236 234 234 235 235 234 234
17 20 19 17 20 21 24 23 17 13 19 16 18 23 18 18 8 350 348 334 320 291 239 270 269 276 241 279 298 314 312 305 228 240 255 220 262 281 291 295 291 265 224 250 248 243 242 239 239 237 238 238 232 227 228 231 234 236 239 239 241 243 245 242 240 236 235 239 242 249 254 263 244 211 225 230 230 232 235 236 235 234 233 233 234
17 20 22 13 13 18 21 19 21 19 18 17 14 11 7 5 359 10 9 346 322 329 311 278 278 283 278 247 252 242 255 268 276 256 244 276 287 278 281 257 250 286 251 247 248 250 239 228 233 238 238 238 237 228 228 231 232 232 232 233 236 239 242 244 243 240 237 236 239 242 246 251 263 242 221 225 227 227 231 233 234 234 235 234 232
22 20 21 13 13 12 13 17 19 14 15 4 9 9 5 9 12 11 358 346 336 335 310 302 294 283 273 260 251 250 256 250 257 254 263 268 265 282 287 299 282 239 269 281 247 245 237 230 227 234 235 237 236 227 231 231 233 233 234 234 233 235 239 241 241 241 240 238 237 238 241 246 250 251 229 225 226 226 227 229 232 233 233 236 235
13 14 9 9 11 13 14 15 11 10 4 7 4 4 4 6 7 2 2 2 347 335 323 295 290 284 279 278 253 255 248 248 251 252 261 268 271 282 282 279 279 292 273 244 278 266 230 231 230 230 236 234 234 227 226 228 233 232 231 235 230 235 236 241 243 243 241 239 237 239 240 241 242 238 227 227 227 227 227 227 228 231 233 233 235
9 11 356 358 9 13 12 15 15 6 5 3 4 1 1 1 355 360 355 339 344 343 314 301 299 278 282 286 280 261 262 256 248 248 252 263 267 262 286 280 273 285 286 277 272 291 267 225 231 232 232 233 235 228 227 230 234 237 228 229 232 231 233 236 240 241 243 241 238 238 239 238 236 230 224 224 225 228 230 229 227 230 232 233 233
8 354 359 5 2 4 6 9 6 3 1 1 360 359 360 353 358 348 349 347 343 341 332 320 308 305 299 276 282 281 264 259 252 247 240 237 243 258 263 289 293 281 288 267 274 219 262 261 231 239 233 237 232 230 228 226 232 234 229 228 235 233 232 235 236 237 238 240 239 237 235 233 228 223 219 221 225 226 230 230 227 231 232 233 234
349 353 356 1 0 360 2 2 358 357 355 355 355 357 354 353 346 351 344 343 343 337 330 327 306 298 287 286 290 278 267 261 251 248 242 239 244 249 244 253 271 292 290 288 279 273 192 244 275 223 229 228 236 232 232 232 235 234 227 223 228 233 229 232 235 236 235 235 237 233 232 230 223 219 220 219 220 224 227 229 229 228 231 233 235
347 352 350 356 356 355 354 353 351 350 347 349 349 349 351 348 345 341 340 336 334 321 317 317 302 304 301 286 271 279 279 267 257 252 249 249 240 240 231 240 237 258 286 292 283 282 269 198 248 272 217 230 237 236 237 232 236 231 227 221 226 232 229 230 234 235 235 233 232 231 228 229 225 221 220 219 219 220 220 220 225 229 229 230 232
348 339 346 347 350 351 349 344 341 341 340 338 341 342 344 343 338 333 328 329 325 309 298 288 294 294 286 293 281 278 277 274 261 251 248 244 244 236 235 235 222 245 259 272 282 268 282 224 227 261 256 243 240 248 231 240 237 233 231 223 226 233 229 229 231 234 235 235 233 231 227 226 227 224 222 220 219 219 221 220 220 223 225 228 231
349 347 347 347 346 346 347 338 340 338 336 334 332 333 337 333 332 327 327 332 329 324 318 311 292 286 287 286 284 277 278 277 275 264 249 244 243 242 241 228 236 231 248 259 273 274 159 275 251 231 246 256 239 253 267 255 250 239 234 228 232 234 235 234 232 233 235 235 235 232 229 225 222 223 223 222 219 216 217 218 220 222 224 227 231
344 342 343 341 342 342 343 340 335 336 335 335 337 331 330 326 321 324 320 324 321 319 316 317 316 306 295 288 278 273 276 274 272 272 271 249 241 249 240 237 242 231 238 250 254 271 258 278 275 281 236 263 255 248 253 260 248 245 238 234 236 238 240 242 236 231 231 233 234 233 230 226 224 220 218 219 219 219 219 221 223 223 224 226 228
347 344 343 340 338 337 334 335 335 332 334 331 335 332 331 326 325 318 317 319 317 314 312 310 310 309 304 297 293 282 274 271 266 266 267 267 257 245 244 245 247 238 229 244 258 272 274 231 273 263 261 246 270 218 247 245 255 246 237 235 235 234 235 235 235 234 231 230 231 231 231 228 225 224 221 219 222 223 224 224 224 224 224 224 226
349 338 336 333 332 332 335 333 333 331 328 328 327 332 328 326 321 322 321 319 314 311 313 308 308 307 301 298 293 292 287 276 275 266 261 267 263 260 253 240 247 250 222 242 257 266 278 267 273 270 271 210 265 185 237 246 250 242 241 235 230 230 233 232 232 233 227 228 228 229 231 230 228 228 229 226 221 222 226 226 225 223 223 224 223
334 333 325 325 324 327 328 328 327 327 327 324 323 325 323 322 319 316 314 312 308 306 306 302 302 303 300 297 293 292 293 287 282 275 267 262 259 259 261 248 251 252 242 232 254 268 272 274 250 274 269 254 236 256 222 246 244 239 244 241 232 234 233 232 234 239 230 229 230 230 230 231 231 229 228 229 225 222 231 232 225 223 221 223 221
330 327 334 329 329 329 327 326 327 325 325 324 323 323 321 320 316 310 309 306 300 297 294 295 295 294 290 290 290 292 291 286 284 282 275 265 262 263 261 258 251 257 248 244 241 257 272 279 266 251 272 266 264 252 257 257 251 254 242 253 239 241 241 235 234 238 235 234 234 234 233 232 232 230 228 226 226 222 224 232 228 222 221 220 220
324 323 321 327 322 326 327 325 324 324 322 321 321 321 321 318 312 308 306 304 300 295 291 288 286 287 285 280 283 287 287 284 282 279 278 273 267 263 263 263 259 256 255 245 252 252 265 268 274 255 255 263 263 267 234 254 261 252 255 249 241 243 243 239 240 239 240 239 239 236 235 234 233 232 229 226 224 223 222 227 232 225 220 219 219
331 329 326 329 330 323 323 320 316 314 314 316 316 315 315 314 311 306 302 298 295 293 291 287 283 280 279 280 279 278 278 277 280 281 277 276 276 269 266 266 263 259 261 257 252 258 259 266 267 276 243 257 268 260 237 226 251 261 260 252 253 243 247 254 241 236 229 232 233 236 237 237 236 235 232 229 227 225 225 227 228 231 221 219 218
336 333 333 329 329 326 321 321 319 319 318 316 316 312 310 309 307 305 304 301 296 293 288 288 287 284 278 276 277 276 273 271 274 277 281 278 274 272 268 270 265 265 265 262 259 258 260 266 269 260 265 248 244 265 248 208 237 243 257 268 262 236 231 237 254 241 231 242 244 241 239 239 241 240 237 233 229 227 224 225 227 229 226 219 218
334 333 331 328 323 325 320 321 319 321 318 318 319 317 314 315 312 307 304 301 299 296 294 290 286 283 281 279 276 275 271 272 273 274 274 276 275 273 271 270 270 267 264 267 265 263 264 265 264 272 255 260 249 243 265 159 256 259 235 247 260 256 235 228 232 240 227 226 236 235 237 242 244 243 243 241 235 230 228 225 226 226 225 222 218
329 326 325 324 324 323 321 320 322 322 319 317 321 321 318 312 308 303 301 298 298 296 295 291 289 286 282 279 277 276 274 273 270 272 271 271 273 275 270 268 272 270 270 267 266 264 265 266 271 267 269 261 252 250 242 228 233 250 241 195 248 254 263 258 243 224 226 226 237 238 236 222 234 236 236 238 235 231 229 226 225 223 221 221 220
326 324 324 328 324 321 323 323 321 321 317 315 315 313 312 310 308 305 300 296 293 289 288 288 285 281 282 282 281 280 283 282 280 280 280 279 275 270 272 272 268 268 267 268 267 265 265 266 265 271 270 265 259 244 243 236 235 245 251 220 245 256 247 254 261 232 206 221 236 240 238 212 214 233 228 235 237 228 229 225 223 220 218 218 216
327 330 330 325 328 327 322 319 318 314 309 310 313 314 313 309 306 300 296 291 286 284 282 284 285 286 285 281 280 283 283 285 286 285 284 282 280 279 277 275 271 266 267 265 262 261 264 264 268 266 264 267 264 257 247 247 230 222 233 233 241 250 245 245 261 251 178 189 221 243 250 210 199 227 228 230 232 227 227 229 224 221 217 216 215
330 331 327 328 330 325 321 318 313 312 310 311 315 313 310 306 303 299 294 290 288 284 281 281 283 287 289 290 288 287 283 283 285 287 285 283 283 282 281 279 277 272 266 264 266 266 259 262 264 262 265 262 268 261 256 246 243 226 225 231 234 237 243 244 249 256 181 183 201 223 247 214 194 224 234 229 226 222 225 229 225 222 219 216 215
323 325 327 326 322 323 318 316 313 310 306 311 311 309 307 305 304 302 294 291 290 290 290 290 289 287 285 285 287 285 288 289 287 285 285 287 287 286 284 283 280 277 274 269 267 265 268 264 261 264 256 265 267 264 252 250 247 248 220 232 231 236 237 242 247 253 190 183 188 221 240 224 186 218 233 231 223 220 226 229 227 224 221 218 217
320 317 319 316 317 318 318 313 308 306 303 307 308 307 306 304 303 301 294 293 291 289 290 290 291 291 293 299 298 294 292 292 288 285 283 282 283 282 279 275 273 270 269 267 268 266 263 263 264 264 264 257 259 266 262 251 252 251 242 244 228 237 235 238 241 247 208 175 192 206 249 234 197 215 237 240 214 219 224 221 222 222 222 221 222
318 316 318 317 314 313 311 308 304 301 299 304 305 305 303 302 301 301 296 294 292 290 290 290 289 288 289 288 286 287 291 290 289 291 291 288 281 277 273 270 266 265 265 263 259 256 257 258 261 264 268 267 265 264 265 255 249 253 250 250 242 238 242 250 255 252 236 192 202 195 245 248 181 208 239 239 202 215 228 222 221 221 222 222 222
297 299 300 301 304 307 306 304 301 298 297 304 304 303 301 301 302 301 298 294 292 290 289 290 289 290 290 289 289 287 283 283 286 289 287 285 285 286 284 283 281 279 275 271 270 267 262 257 254 257 261 263 263 262 261 259 255 256 259 262 260 251 248 247 248 240 240 193 199 206 238 252 161 205 238 225 175 218 224 221 221 223 223 223 223
303 302 297 297 299 300 301 299 297 295 295 301 301 301 302 302 304 298 295 291 290 291 291 292 292 292 294 296 298 297 295 296 296 296 298 296 290 284 283 284 282 278 274 274 275 277 277 276 273 268 264 263 262 262 262 262 260 257 256 254 248 241 243 247 249 243 240 203 206 203 227 249 213 201 240 200 187 219 225 214 214 222 224 223 224
302 298 298 298 292 290 292 293 292 293 293 297 300 301 302 303 301 298 297 293 290 290 291 291 293 292 292 292 292 293 293 291 293 289 288 286 279 278 280 282 281 275 272 274 276 274 270 269 267 266 266 266 267 269 268 266 264 259 248 248 244 237 243 236 249 242 246 228 206 186 218 236 241 190 228 306 240 241 232 218 209 216 223 229 229
290 297 297 294 293 288 283 285 291 291 289 294 298 299 301 302 301 294 291 287 290 291 292 292 290 291 293 295 293 289 286 284 286 289 292 293 291 288 281 273 271 271 275 285 280 276 271 269 270 273 273 270 267 262 262 261 260 258 251 251 246 238 241 238 242 248 253 239 207 178 213 227 236 198 198 211 245 237 213 208 202 205 205 209 226